This is the latest recevied weather packets stored in our database for station/object KC2G. If no packets are shown the sender has not sent any weather packets the latest 10 day(s).
| Time | Temp. | Humidity | Pressure | Rain* | Wind** | Luminosity | Snow |
|---|---|---|---|---|---|---|---|
| 1777882605 | 6.67° C | 80% | 1013.2 hPa | 0 mm | 0 m/s | - | - |
| 1777882554 | 6.67° C | 80% | 1013.2 hPa | 0 mm | 0 m/s | - | - |
| 1777881654 | 6.67° C | 75% | 1013 hPa | 0 mm | 0 m/s | - | - |
| 1777880856 | 6.67° C | 72% | 1013 hPa | 0 mm | 0 m/s | - | - |
| 1777880755 | 6.67° C | 72% | 1013 hPa | 0 mm | 0 m/s | - | - |
| 1777880706 | 7.22° C | 75% | 1012.8 hPa | 0 mm | 0 m/s | - | - |
| 1777879928 | 6.67° C | 74% | 1012.9 hPa | 0 mm | 0.45 m/s, 167° | - | - |
| 1777879854 | 6.67° C | 74% | 1012.9 hPa | 0 mm | 0.45 m/s, 167° | - | - |
| 1777878954 | 7.22° C | 75% | 1012.8 hPa | 0 mm | 0 m/s | - | - |
| 1777878786 | 6.67° C | 75% | 1012.8 hPa | 0 mm | 0.45 m/s, 165° | - | - |
| 1777878055 | 6.67° C | 74% | 1012.8 hPa | 0 mm | 0.45 m/s, 149° | - | - |
| 1777877154 | 6.67° C | 75% | 1012.8 hPa | 0 mm | 0.45 m/s, 165° | - | - |
| 1777876867 | 6.11° C | 80% | 1012.8 hPa | 0 mm | 0 m/s | - | - |
| 1777876255 | 6.11° C | 78% | 1012.7 hPa | 0 mm | 0 m/s | - | - |
| 1777875394 | 6.11° C | 80% | 1012.8 hPa | 0 mm | 0 m/s | - | - |
| 1777875354 | 6.11° C | 80% | 1012.8 hPa | 0 mm | 0 m/s | - | - |
| 1777874456 | 5.56° C | 84% | 1012.7 hPa | 0 mm | 0 m/s | - | - |
| 1777873554 | 5.56° C | 86% | 1012.7 hPa | 0 mm | 0 m/s | - | - |
| 1777873032 | 5.56° C | 87% | 1012.5 hPa | 0 mm | 0 m/s | - | - |
| 1777872875 | 5.56° C | 86% | 1012.6 hPa | 0 mm | 0 m/s | - | - |
| 1777872655 | 5.56° C | 86% | 1012.6 hPa | 0 mm | 0 m/s | - | - |
| 1777871756 | 5.56° C | 87% | 1012.5 hPa | 0 mm | 0 m/s | - | - |
| 1777871116 | 5.56° C | 85% | 1012.5 hPa | 0 mm | 0 m/s | - | - |
| 1777870855 | 5.56° C | 86% | 1012.6 hPa | 0 mm | 0 m/s | - | - |
| 1777869955 | 5.56° C | 85% | 1012.5 hPa | 0 mm | 0 m/s | - | - |
* Rain latest hour (hover to see other rain measurements)
** Current wind speed in m/s (hover to see current wind gust speed)